Location: Canyon City
(32.5951°N, 116.5278°W)
Time: 02:08:02
(UTC+00:00)

OAO 3 Rocket - Pass Details

Date: 08 September 2024
Orbit: 619 x 669 km, 35.0° (Epoch: 10 October)

Event Time Altitude Azimuth Distance (km) Brightness Sun altitude
Exits shadow 12:06:21 24° 210° (SSW) 1,298 4.3 -17.1°
Drops below altitude 10° 12:10:02 10° 157° (SSE) 1,994 5.7 -16.4°
Sets 12:12:45 0° 143° (SE) 2,908 6.8 -15.9°
